EHI
0 0 0 0 0 0 0 0 0 0 0 0 0 0 1 1 1 0 1 4 11 19 26 35 42 42 39 33 27 22 20 18 13 8 5 3 1 0 0 0 0 0 0 0 0 0 0 0 0
0 0 0 0 0 0 0 0 0 0 0 0 0 1 2 3 1 0 2 6 15 23 28 33 40 43 39 33 28 23 20 17 12 8 5 2 0 0 0 0 0 0 0 0 0 0 0 0 0
0 0 0 0 0 0 0 0 0 0 0 0 0 1 2 3 1 1 3 10 20 27 28 31 38 43 38 33 29 25 21 15 10 6 4 2 0 0 0 0 0 0 0 0 0 0 0 0 0
0 0 0 0 0 0 0 0 0 0 0 0 0 1 3 4 2 3 7 14 21 26 28 31 37 41 37 33 30 26 21 15 9 5 3 1 0 0 0 0 1 1 1 0 0 0 0 0 0
0 0 0 0 0 0 0 0 0 0 0 0 0 1 5 6 6 8 12 15 19 24 28 32 36 37 35 32 30 25 20 14 9 6 3 1 1 1 0 0 1 2 1 1 1 1 0 0 0
0 0 0 0 0 0 0 0 0 0 0 0 0 2 6 8 10 12 15 16 18 22 28 31 32 32 30 30 28 24 20 15 9 6 4 3 3 3 1 0 1 1 2 2 2 2 1 0 0
0 0 0 0 0 0 0 0 0 0 0 0 0 2 6 9 11 14 18 20 21 24 28 30 29 27 25 24 23 21 19 14 7 5 4 4 4 3 1 0 0 1 2 2 2 2 1 0 0
0 0 0 0 0 0 0 0 0 0 0 0 0 2 6 9 13 18 23 25 25 26 28 29 28 25 22 19 17 16 15 10 4 2 2 2 1 1 0 0 0 1 1 1 1 1 0 0 0
0 0 0 0 0 0 0 0 0 0 0 0 1 3 7 12 16 19 22 24 24 24 24 26 27 24 20 16 13 11 10 6 2 0 0 0 0 0 0 0 0 0 0 1 0 0 0 0 0
0 0 0 0 0 0 0 0 0 0 0 0 1 4 10 15 17 16 17 18 20 20 20 21 22 21 18 14 12 10 8 4 1 0 0 0 0 0 0 0 0 0 0 0 0 0 0 0 0
0 0 0 0 0 0 0 0 0 0 0 0 1 5 11 14 13 12 12 14 15 16 16 15 15 14 12 11 11 10 8 5 1 0 0 0 0 0 0 0 0 0 0 0 0 0 0 0 0
0 0 0 0 0 0 0 0 0 0 1 1 2 5 9 10 8 7 9 11 13 14 14 12 10 8 7 8 8 8 8 5 1 0 0 0 0 0 0 0 0 0 0 0 0 0 0 0 0
0 0 0 0 0 0 0 0 0 1 2 2 3 5 6 6 5 5 7 8 10 11 10 10 7 4 4 6 5 5 5 3 1 0 0 0 0 0 0 0 0 0 0 0 0 0 0 0 0
0 0 0 0 0 0 0 0 0 1 2 3 3 3 4 5 4 4 5 5 6 7 7 7 5 3 3 3 3 3 2 1 0 0 0 0 0 0 0 0 0 0 0 0 0 0 0 0 0
0 0 0 0 0 0 0 0 0 1 2 3 3 2 3 5 4 4 4 3 4 5 5 6 5 3 2 1 2 2 1 0 0 0 0 0 0 0 0 0 0 0 0 0 0 0 0 0 0
0 0 0 0 0 0 0 0 0 0 1 2 2 3 3 4 4 3 2 3 4 5 5 4 4 4 3 2 1 1 1 0 0 0 0 0 0 0 0 0 0 0 0 0 0 0 0 0 0
0 0 0 0 0 0 0 0 0 0 0 1 1 3 3 3 3 2 1 1 3 5 5 3 3 3 3 2 1 0 0 0 0 0 0 0 0 0 0 0 0 0 0 0 0 0 0 0 0
0 0 0 0 0 0 0 0 0 0 0 0 1 2 3 3 2 1 0 0 1 4 4 3 2 3 3 2 1 0 0 0 0 0 0 0 0 0 0 0 0 0 0 0 0 0 0 0 0
0 0 0 0 0 0 0 0 0 0 0 0 1 2 2 2 3 2 1 0 1 2 3 3 2 2 2 2 1 0 0 0 0 0 0 0 0 0 0 0 0 0 0 0 0 0 0 0 0
0 0 0 0 0 0 0 0 0 0 0 0 0 1 1 2 3 2 1 0 0 1 2 2 2 1 1 1 0 0 0 0 0 0 0 0 0 0 0 0 0 0 0 0 0 0 0 0 0
0 0 0 0 0 0 0 0 0 0 0 0 0 0 1 2 2 2 1 0 0 0 1 1 1 1 0 1 1 0 0 0 0 0 0 0 0 0 0 0 0 0 0 0 0 0 0 0 0
0 0 0 0 0 0 0 0 0 0 0 0 0 0 0 1 1 1 0 0 0 0 0 0 0 0 0 1 1 0 0 0 0 0 0 0 0 0 0 0 0 0 0 0 0 0 0 0 0
0 0 0 0 0 0 0 0 0 0 0 0 0 0 0 0 0 0 0 0 0 0 0 0 0 0 0 1 1 0 0 0 0 0 0 0 0 0 0 0 0 0 0 0 0 0 0 0 0
0 0 0 0 0 0 0 0 0 0 0 0 0 0 0 0 0 0 0 0 0 0 0 0 0 0 0 0 0 0 0 0 0 0 0 0 0 0 0 0 0 0 0 0 0 0 0 0 0
0 0 0 0 0 0 0 0 0 0 0 0 0 0 0 0 0 0 0 0 0 0 0 0 0 0 0 0 0 0 0 0 0 0 0 0 0 0 0 0 0 0 0 0 0 0 0 0 0
0 0 0 0 0 0 0 0 0 0 0 0 0 0 0 0 0 0 0 0 0 0 0 0 0 0 0 0 0 0 0 0 0 0 0 0 0 0 0 0 0 0 0 0 0 0 0 0 0
0 0 0 0 0 0 0 0 0 0 0 0 0 0 0 0 0 0 0 0 0 0 0 0 0 0 0 0 0 0 0 0 0 0 0 0 0 0 0 0 0 0 0 0 0 0 0 0 0
0 0 0 0 0 0 0 0 0 0 0 0 0 0 0 0 0 0 0 0 0 0 0 0 0 0 0 0 0 0 0 0 0 0 0 0 0 0 0 0 0 0 0 0 0 0 0 0 0
0 0 0 0 0 0 0 0 0 0 0 0 0 0 0 0 0 0 0 0 0 0 0 0 0 0 0 0 0 0 0 0 0 0 0 0 0 0 0 0 0 0 0 0 0 0 0 0 0
0 0 0 0 0 0 0 0 0 0 0 0 0 0 0 0 0 0 0 0 0 0 0 0 0 0 0 0 0 0 0 0 0 0 0 0 0 0 0 0 0 0 0 0 0 0 0 0 0
Wind_Speed
5 3 2 4 6 4 4 6 4 3 3 3 2 5 6 4 4 4 3 9 12 13 12 14 16 16 16 16 15 14 14 13 13 13 14 14 14 14 14 14 14 14 14 14 14 14 14 14 14
2 1 4 5 5 2 5 5 5 6 4 1 1 3 4 2 2 6 5 10 15 13 11 12 16 16 16 16 15 14 14 13 13 13 13 13 13 13 13 13 13 14 14 14 14 13 13 13 13
2 1 4 4 4 7 6 5 7 5 3 1 1 2 4 3 4 5 7 14 13 12 10 11 16 15 15 15 15 14 13 13 13 12 12 12 13 13 13 13 13 13 13 13 13 13 12 12 12
2 4 4 3 6 7 6 4 3 2 2 1 2 3 2 1 3 5 12 14 13 11 9 11 15 15 14 14 14 14 13 13 13 12 12 12 13 13 13 13 13 13 12 13 13 12 11 11 11
3 4 3 2 7 5 5 5 3 2 2 1 3 4 2 4 4 10 12 13 13 10 9 11 15 14 14 14 14 13 13 13 13 12 12 12 12 12 12 12 12 12 12 13 12 12 11 10 11
3 3 3 6 7 4 4 4 2 2 2 1 3 4 2 2 6 9 10 11 11 11 9 10 14 13 13 13 13 13 13 13 12 12 12 12 12 12 12 12 11 12 12 12 12 11 11 10 11
4 4 4 5 4 4 4 3 3 3 2 2 3 5 2 2 3 7 9 10 9 8 8 7 8 10 12 12 11 11 11 11 11 11 11 11 10 10 11 11 11 11 11 11 11 11 10 10 10
4 3 3 4 4 4 2 1 1 3 2 1 3 6 4 2 4 7 8 8 8 7 7 6 6 6 7 8 10 11 11 10 11 11 10 10 9 9 9 9 9 10 11 10 10 10 10 10 10
3 2 5 5 4 3 1 0 2 1 3 3 3 3 3 6 8 9 8 6 6 6 5 5 5 5 5 6 8 9 10 10 10 9 10 8 5 5 5 6 8 9 9 10 10 9 9 9 8
3 5 7 3 2 1 1 0 1 2 3 3 4 5 5 7 9 9 8 7 6 6 4 4 5 5 5 5 5 4 5 5 5 5 6 4 4 3 5 7 8 8 8 8 8 8 8 6 4
4 6 3 3 2 1 1 1 2 3 1 1 3 3 5 6 6 7 6 6 6 5 5 4 5 5 5 3 4 3 3 3 4 5 5 4 3 3 3 2 3 4 5 4 5 4 3 3 3
3 4 3 3 3 2 1 1 2 1 2 1 4 6 6 6 5 5 5 4 3 4 3 3 4 4 4 4 3 3 3 3 4 5 6 5 3 3 3 2 2 2 2 3 3 2 3 3 4
4 4 3 3 3 2 1 1 1 1 1 2 5 6 6 5 4 3 3 4 3 3 2 2 3 4 4 4 3 4 3 4 4 4 5 5 4 4 3 3 2 2 2 3 3 3 3 3 4
4 3 3 3 3 2 2 2 1 2 2 5 6 5 4 4 3 3 3 2 2 2 2 1 2 2 3 3 3 3 3 3 4 4 5 6 5 5 4 4 3 3 3 3 3 3 3 3 3
2 2 4 4 2 1 2 4 2 2 3 4 4 4 4 4 5 4 3 2 2 2 2 1 2 2 2 3 4 3 3 3 3 4 5 6 5 5 5 4 4 3 3 4 3 3 3 3 3
1 1 3 4 2 1 3 4 3 2 3 3 3 4 4 5 5 4 4 4 3 3 2 1 1 1 1 2 2 2 3 3 3 3 4 5 6 6 5 4 4 4 3 3 3 3 3 3 3
0 3 4 3 1 0 3 3 3 3 4 3 3 3 4 4 6 6 5 4 3 3 2 3 2 2 1 1 2 2 3 3 3 3 3 4 6 6 5 4 4 4 4 3 4 3 3 4 3
4 4 4 3 2 1 2 1 2 4 5 4 3 3 3 4 4 4 5 4 4 3 3 3 3 3 2 1 1 1 2 2 2 2 3 4 5 6 6 4 5 5 4 3 4 4 3 3 4
3 4 4 4 2 0 2 0 2 3 4 4 4 3 3 2 3 4 4 4 4 5 4 4 4 3 2 1 0 1 2 2 1 1 2 4 4 6 6 5 5 5 4 5 5 4 4 3 3
2 2 3 3 2 1 2 0 2 3 4 3 3 3 3 3 5 5 5 4 4 3 3 3 3 3 2 1 1 1 2 2 2 2 1 2 4 4 5 6 5 5 4 5 5 5 4 2 2
3 2 3 3 3 1 2 1 1 2 4 5 5 4 4 4 4 5 5 4 4 4 3 2 2 3 3 3 2 1 1 1 0 1 1 1 3 3 3 6 6 5 5 6 5 5 6 4 2
4 3 4 3 1 3 2 3 1 1 3 6 6 6 6 5 4 4 5 5 4 4 3 2 2 2 3 3 1 0 1 2 2 2 2 2 2 2 3 4 6 6 5 6 6 5 4 6 4
4 6 5 3 2 1 1 3 2 2 3 6 8 8 8 7 6 5 5 4 4 4 4 3 3 3 3 3 2 0 1 1 1 1 2 2 2 2 3 3 5 6 5 5 5 5 4 4 4
3 3 2 1 2 2 3 4 1 3 4 6 8 9 10 9 8 6 5 4 5 5 5 4 4 4 3 3 2 1 1 2 1 1 2 2 1 1 2 2 4 5 5 6 6 5 6 4 4
6 4 3 2 0 3 1 4 0 3 5 5 6 8 9 9 9 9 8 6 6 6 6 5 4 5 4 3 2 2 2 1 2 2 3 2 2 1 3 2 3 4 4 5 5 6 6 5 6
3 2 2 2 2 2 2 2 1 3 5 6 6 7 9 10 9 9 9 7 5 5 5 5 5 5 5 4 3 2 2 1 2 2 2 3 2 2 3 3 3 4 4 5 5 5 5 5 5
3 2 0 2 1 1 1 1 1 5 8 10 10 11 11 11 11 10 9 8 7 6 5 4 4 5 5 5 4 3 3 2 2 3 2 2 2 2 2 3 3 3 5 5 5 4 5 5 5
3 1 3 2 0 1 2 1 2 5 8 9 10 10 11 11 10 10 8 8 8 7 6 5 4 4 4 4 4 4 3 3 3 2 2 2 2 2 2 2 3 3 4 4 5 4 4 5 5
6 4 3 1 1 1 2 3 0 1 4 6 7 8 9 10 9 8 8 7 7 7 7 6 5 5 5 4 4 4 4 3 3 2 3 2 2 2 2 2 3 3 4 4 4 4 5 6 5
2 1 2 1 1 0 1 4 1 2 3 5 6 8 8 9 8 7 7 7 7 8 8 7 6 6 5 5 4 4 4 3 3 3 3 3 2 2 2 2 3 3 4 5 5 5 5 6 6
Wind_Direction
319 349 62 60 61 61 229 240 229 241 227 219 175 128 127 132 150 163 136 137 136 146 152 150 148 144 140 137 134 131 129 126 125 123 121 120 120 119 120 119 116 113 109 108 105 103 99 99 100
350 19 57 66 106 179 249 236 225 229 215 193 131 112 97 92 95 116 127 144 142 145 148 148 146 144 141 139 137 135 133 130 127 126 125 123 122 122 121 120 117 114 112 110 109 107 103 100 101
340 64 89 93 159 194 215 224 218 238 252 221 119 79 111 130 132 146 151 143 138 142 144 148 146 144 143 141 140 138 136 134 131 129 128 126 124 123 122 122 119 115 113 112 112 109 104 101 100
63 53 65 111 220 222 207 218 207 227 307 302 126 77 64 51 162 148 139 138 136 139 142 148 145 144 143 143 142 141 139 137 134 132 131 129 128 126 122 122 120 118 117 116 116 111 106 102 99
69 89 105 224 236 241 233 245 223 201 218 259 125 116 49 351 92 122 134 137 138 140 142 148 146 145 144 144 144 142 142 141 139 137 135 131 130 129 126 123 122 122 122 122 120 114 109 102 99
76 91 147 222 235 246 247 244 215 205 221 235 125 122 104 33 102 126 130 134 138 141 143 149 148 146 146 145 144 142 142 141 139 139 137 134 132 133 131 129 128 127 126 124 121 117 111 104 99
130 137 195 211 227 245 244 226 189 200 214 233 150 121 116 43 111 128 124 123 126 131 137 144 149 148 148 146 144 141 140 139 138 136 133 130 130 131 134 135 135 133 128 125 123 118 113 106 99
145 136 209 216 208 234 262 235 183 167 212 276 111 132 163 190 124 113 110 114 120 126 132 137 141 143 143 144 142 140 139 139 136 132 126 125 126 128 131 136 136 134 132 128 126 122 118 110 102
117 139 217 210 196 227 266 83 328 65 96 53 50 116 146 132 115 106 104 105 117 127 132 136 136 134 137 145 147 141 140 139 135 131 126 123 121 124 126 130 133 135 135 133 129 125 119 111 101
142 201 223 216 200 216 327 342 288 65 59 46 40 41 83 106 118 122 128 134 137 141 141 141 142 142 139 148 140 139 138 137 134 133 131 124 121 126 126 130 134 133 132 133 133 127 116 104 94
179 206 228 274 281 292 298 321 346 121 99 176 142 118 107 104 113 128 134 140 150 152 145 145 146 147 143 138 144 142 138 139 137 139 136 129 121 119 114 120 128 127 124 119 123 111 102 107 109
211 240 233 281 320 329 305 336 17 59 190 182 141 136 121 117 124 128 130 127 130 138 139 146 146 144 146 143 148 150 152 152 151 151 145 137 133 131 134 130 128 125 123 123 118 118 116 113 111
231 255 263 283 318 329 12 349 79 328 334 74 91 99 105 110 112 107 115 115 113 116 114 122 146 146 144 145 157 151 157 163 160 156 154 148 146 149 147 143 139 138 135 137 133 129 127 124 119
229 257 282 276 278 304 27 329 54 299 58 77 86 94 98 100 97 75 68 88 101 114 122 129 126 140 147 148 156 158 160 157 159 162 165 156 152 155 156 150 148 151 151 147 143 141 135 128 124
279 289 300 280 255 233 71 333 294 289 80 82 84 85 72 63 57 58 49 54 74 104 109 116 133 111 145 155 160 156 163 160 162 168 169 162 156 157 157 155 156 161 151 143 131 127 121 119 117
324 279 260 277 256 264 123 262 326 354 98 99 80 71 69 53 46 36 32 38 42 50 68 78 104 93 118 158 163 160 162 164 167 166 168 167 162 159 155 157 163 159 147 143 138 135 123 119 121
47 234 239 280 270 131 148 238 326 15 85 82 69 66 61 39 27 22 23 30 39 45 56 52 38 63 79 157 176 165 159 162 166 167 167 169 166 162 157 161 162 153 146 146 147 135 134 133 127
222 229 235 243 309 106 155 227 359 31 80 82 57 49 53 35 12 12 14 18 28 37 40 47 40 34 28 68 140 151 131 154 154 167 175 167 166 163 158 159 159 152 149 149 144 137 128 134 134
221 228 250 259 298 65 156 134 347 13 58 60 47 39 33 6 358 14 17 13 25 28 31 38 30 18 31 33 165 180 181 185 164 170 177 170 165 165 163 161 160 159 162 162 150 135 131 129 129
258 240 260 280 294 277 159 82 10 30 58 72 62 42 19 7 7 10 15 15 20 25 20 24 23 14 9 335 264 233 191 190 187 177 169 166 169 168 171 164 167 163 158 157 155 142 137 143 153
297 221 236 255 308 267 160 315 9 30 54 43 41 36 24 17 4 357 3 1 10 15 6 1 359 357 357 356 6 18 73 90 133 179 186 191 178 170 168 169 165 166 165 169 170 159 150 158 182
273 271 270 260 224 247 190 209 271 28 36 25 20 18 9 0 358 358 358 0 2 354 351 351 354 357 360 3 14 65 198 195 220 215 207 202 181 177 170 174 169 170 171 172 177 170 162 156 169
267 287 272 248 204 232 240 161 280 20 16 9 11 11 6 360 359 358 356 351 356 359 0 356 351 355 360 359 359 347 312 257 226 205 197 192 195 186 173 177 178 177 177 177 176 167 169 165 168
314 337 328 100 117 218 225 157 273 12 359 358 3 5 3 359 354 352 353 358 5 8 9 6 0 355 354 354 354 351 330 331 244 197 203 204 204 206 195 186 184 181 180 181 183 179 178 179 172
23 54 25 7 32 236 83 109 181 15 19 16 5 357 357 0 0 358 360 3 6 7 5 0 359 355 348 341 338 323 300 275 246 221 210 209 207 220 210 199 199 189 186 184 181 182 185 183 180
348 76 138 221 231 299 26 123 156 34 28 19 12 2 1 2 0 360 360 358 356 1 1 358 353 348 344 335 324 311 306 280 273 265 237 223 223 226 217 205 207 199 188 186 182 183 186 184 187
16 11 230 150 312 281 310 53 313 19 14 10 7 6 1 356 354 354 358 359 356 355 353 347 343 345 343 338 336 321 316 306 296 294 269 240 244 245 229 211 208 208 193 188 183 186 187 185 189
38 22 47 76 61 289 312 290 302 344 353 357 358 355 350 348 351 353 355 354 354 351 346 344 344 339 336 335 336 331 323 318 311 301 291 268 253 239 227 223 211 212 201 192 189 187 187 188 194
9 24 27 68 134 174 258 278 306 2 350 346 343 345 344 343 346 347 348 347 351 351 348 345 348 348 345 341 336 332 329 328 330 308 297 284 266 239 225 230 225 219 208 196 193 195 188 194 196
76 36 50 103 312 113 179 266 37 38 359 348 341 342 340 342 345 346 349 351 353 352 350 350 348 346 338 335 333 329 329 331 328 319 310 304 280 260 245 233 231 235 221 201 197 198 194 196 198